Location: Austin
(30.3000°N, 97.7500°W)
Time: 23:14:51
(UTC-05:00)

GPS 2-12 Rocket1 - Pass Details

Date: 06 May 2026
Orbit: 560 x 613 km, 20.0° (Epoch: 13 May)

Event Time Altitude Azimuth Distance (km) Brightness Sun altitude
Rises 21:35:38 0° 247° (WSW) 2,785 6.9 -17.0°
Reaches altitude 10° 21:38:22 10° 231° (SW) 1,897 5.8 -17.5°
Maximum altitude 21:41:44 21° 182° (S) 1,331 4.5 -18.1°
Enters shadow 21:41:53 21° 179° (S) 1,333 4.4 -18.1°
